GW0388 Weather Reports


time (UTC)temp
C
wind
direction
speed
KPH
gust
KPH
rain 1hr
cm
rain 24hr
cm
rain mn
cm
humidity
%
barometer
mb
20260503224553 32 54 3.2 11.3 0.00 0.00 0.00 22 1007.8
20260503223054 32 46 4.8 12.9 0.00 0.00 0.00 23 1008.0
20260503221554 32 59 4.8 8.0 0.00 0.00 0.00 27 1008.2
20260503220105 32 65 3.2 9.7 0.00 0.00 0.00 27 1008.4
20260503214647 31 86 3.2 12.9 0.00 0.00 0.00 27 1008.6
20260503213128 31 30 1.6 12.9 0.00 0.00 0.00 28 1008.7
20260503211620 31 77 4.8 14.5 0.00 0.00 0.00 26 1008.9
20260503210052 30 21 4.8 14.5 0.00 0.00 0.00 31 1009.0
20260503204606 30 60 6.4 16.1 0.00 0.00 0.00 32 1009.2
20260503203054 30 52 6.4 14.5 0.00 0.00 0.00 32 1009.4
20260503201554 30 341 3.2 14.5 0.00 0.00 0.00 33 1009.6
20260503200054 29 24 3.2 9.7 0.00 0.00 0.00 34 1009.8
20260503194553 29 314 3.2 14.5 0.00 0.00 0.00 34 1010.1
20260503193056 28 0 4.8 12.9 0.00 0.00 0.00 36 1010.1
20260503191604 28 40 4.8 12.9 0.00 0.00 0.00 38 1010.2
20260503190057 27 348 4.8 9.7 0.00 0.00 0.00 37 1010.4
20260503184616 27 21 1.6 9.7 0.00 0.00 0.00 41 1010.6
20260503183106 27 69 4.8 9.7 0.00 0.00 0.00 43 1010.6
20260503181554 26 0 1.6 8.0 0.00 0.00 0.00 46 1010.8
20260503180057 25 42 3.2 9.7 0.00 0.00 0.00 48 1010.9
20260503174610 25 40 4.8 11.3 0.00 0.00 0.00 53 1011.0
20260503173118 23 40 1.6 9.7 0.00 0.00 0.00 56 1011.2
20260503171553 23 54 3.2 8.0 0.00 0.00 0.00 56 1011.3
20260503100106 12 0 0.0 0.0 0.00 0.00 0.00 92 1011.8
20260503090104 12 0 0.0 0.0 0.00 0.00 0.00 91 1012.0
20260503081600 13 0 0.0 0.0 0.00 0.00 0.00 90 1012.0
20260503071611 15 0 0.0 0.0 0.00 0.00 0.00 86 1012.3
20260503070111 15 0 0.0 0.0 0.00 0.00 0.00 86 1012.1
20260503060114 16 32 0.0 9.7 0.00 0.00 0.00 81 1012.1
20260503054559 17 25 4.8 9.7 0.00 0.00 0.00 80 1012.1
20260503053055 17 34 3.2 12.9 0.00 0.00 0.00 79 1012.3
20260503051553 17 22 1.6 8.0 0.00 0.00 0.00 80 1012.3
20260503050100 17 350 1.6 8.0 0.00 0.00 0.00 80 1012.4
20260503044554 17 0 1.6 12.9 0.00 0.00 0.00 78 1012.6
20260503043058 17 347 1.6 12.9 0.00 0.00 0.00 78 1012.5
20260503041552 17 0 3.2 8.0 0.00 0.00 0.00 78 1012.5
20260503040057 17 0 0.0 6.4 0.00 0.00 0.00 76 1012.2
20260503034555 17 302 0.0 8.0 0.00 0.00 0.00 75 1012.0
20260503033101 17 201 3.2 11.3 0.00 0.00 0.00 75 1012.1
20260503031552 17 263 3.2 12.9 0.00 0.00 0.00 74 1012.0
20260503030057 18 252 3.2 9.7 0.00 0.00 0.00 74 1012.1
20260503024552 18 231 4.8 19.3 0.00 0.00 0.00 73 1012.0
20260503023055 18 213 8.0 24.1 0.00 0.00 0.00 71 1011.8
20260503021557 19 247 6.4 19.3 0.00 0.00 0.00 71 1011.5
20260503014627 21 181 4.8 16.1 0.00 0.00 0.00 66 1011.1
20260503013053 22 0 0.0 8.0 0.00 0.00 0.00 64 1011.0
20260503011617 22 0 0.0 3.2 0.00 0.00 0.00 62 1010.9
20260503010057 22 0 0.0 4.8 0.00 0.00 0.00 61 1010.8
20260503004602 22 196 0.0 9.7 0.00 0.00 0.00 62 1010.8
20260503003058 22 219 0.0 8.0 0.00 0.00 0.00 60 1010.8
20260503001608 22 126 0.0 4.8 0.00 0.00 0.00 59 1010.9
20260503000121 22 102 0.0 11.3 0.00 0.00 0.00 59 1011.0
20260502234618 23 123 1.6 6.4 0.00 0.00 0.00 58 1011.1
20260502233057 22 0 0.0 3.2 0.00 0.00 0.00 58 1011.4
20260502231553 21 0 0.0 6.4 0.00 0.00 0.00 60 1011.6
20260502230057 21 77 1.6 12.9 0.00 0.00 0.00 60 1011.7